Location: Newark
(40.7360°N, 74.1730°W)
Time: 21:11:09
(UTC-04:00)

ISS - All Passes

Search period start: 22 May 2015 00:00
Search period end: 01 June 2015 00:00
Orbit: 399 x 404 km, 51.6° (Epoch: 22 May)

Date Brightness Start Highest point End Pass type
(mag) Time Alt. Az. Time Alt. Az. Time Alt. Az.
22 May - 02:01:36 10° SW 02:04:51 87° NNW 02:08:07 10° NE visible
22 May - 03:39:15 10° WNW 03:41:39 18° NNW 03:44:03 10° NNE visible
22 May - 05:17:35 10° NNW 05:19:03 12° N 05:20:32 10° NNE daylight
22 May - 06:53:43 10° NNW 06:56:23 23° NNE 06:59:04 10° ENE daylight
22 May - 08:29:47 10° WNW 08:33:02 60° SW 08:36:15 10° SE daylight
23 May - 01:08:35 10° SSW 01:11:42 45° SE 01:14:51 10° ENE visible
23 May - 02:45:28 10° W 02:48:15 25° NNW 02:51:03 10° NE visible
23 May - 04:24:01 10° NNW 04:25:31 13° N 04:27:03 10° NNE visible
23 May - 06:00:43 10° NNW 06:02:57 17° NNE 06:05:12 10° ENE daylight
23 May - 07:36:35 10° NW 07:39:52 69° NE 07:43:07 10° ESE daylight
23 May - 09:14:19 10° W 09:15:55 13° SW 09:17:25 10° SSW daylight
24 May - 00:16:01 10° S 00:18:37 23° SE 00:21:17 10° E night (unlit)
24 May - 01:51:48 10° WSW 01:54:54 40° NNW 01:58:00 10° NE visible
24 May - 03:30:09 10° NW 03:32:00 14° N 03:33:50 10° NNE visible
24 May - 05:07:39 10° NNW 05:09:27 14° N 05:11:16 10° NE daylight
24 May - 06:43:28 10° NW 06:46:34 38° NNE 06:49:40 10° E daylight
24 May - 08:20:07 10° WNW 08:22:53 25° SW 08:25:36 10° S daylight
24 May - 23:24:24 10° SSE 23:25:34 12° SE 23:26:51 10° ESE night (unlit)
25 May - 00:58:22 10° WSW 01:01:36 74° NW 01:04:52 10° NE visible
25 May - 02:36:11 10° WNW 02:38:28 17° NNW 02:40:45 10° NNE visible
25 May - 04:14:24 10° NNW 04:15:53 12° N 04:17:23 10° NNE visible
25 May - 05:50:25 10° NW 05:53:10 24° NNE 05:55:56 10° E daylight
25 May - 07:26:34 10° WNW 07:29:44 50° SW 07:32:55 10° SE daylight
26 May - 00:05:12 10° SW 00:08:22 54° SE 00:11:34 10° ENE visible
26 May - 01:42:17 10° WNW 01:44:58 23° NNW 01:47:40 10° NNE visible
26 May - 03:20:48 10° NNW 03:22:17 12° N 03:23:45 10° NNE visible
26 May - 04:57:21 10° NNW 04:59:40 18° NNE 05:02:02 10° ENE visible
26 May - 06:33:14 10° NW 06:36:31 81° NE 06:39:47 10° SE daylight
26 May - 08:11:37 10° WSW 08:12:31 11° SW 08:13:18 10° SW daylight
26 May - 23:12:25 10° SSW 23:15:11 27° SE 23:18:00 10° ENE night (unlit)
27 May - 00:48:29 10° W 00:51:31 35° NNW 00:54:34 10° NE visible
27 May - 02:26:55 10° NW 02:28:40 14° N 02:30:24 10° NNE visible
27 May - 04:04:13 10° NNW 04:06:06 14° N 04:08:01 10° NE visible
27 May - 05:40:01 10° NW 05:43:10 43° NNE 05:46:18 10° ESE daylight
27 May - 07:16:51 10° W 07:19:25 21° SW 07:21:56 10° S daylight
27 May - 22:20:20 10° SSE 22:22:02 14° SE 22:23:50 10° E night (unlit)
27 May - 23:54:54 10° WSW 23:58:07 63° NW 00:01:22 10° NE visible
28 May - 01:32:53 10° WNW 01:35:03 16° NNW 01:37:12 10° NNE visible
28 May - 03:10:56 10° NNW 03:12:28 13° N 03:14:01 10° NNE visible
28 May - 04:46:52 10° NW 04:49:42 27° NNE 04:52:34 10° E visible
28 May - 06:23:06 10° WNW 06:26:13 41° SW 06:29:18 10° SSE daylight
28 May - 23:01:35 10° SW 23:04:48 65° SE 23:08:01 10° ENE visible
29 May - 00:38:51 10° WNW 00:41:27 21° NNW 00:44:03 10° NNE visible
29 May - 02:17:21 10° NNW 02:18:47 12° N 02:20:13 10° NNE visible
29 May - 03:53:43 10° NNW 03:56:09 19° NNE 03:58:36 10° ENE visible
29 May - 05:29:38 10° NW 05:32:55 86° SW 05:36:11 10° SE daylight
29 May - 22:08:36 10° SSW 22:11:31 31° SE 22:14:27 10° ENE night (unlit)
29 May - 23:44:57 10° W 23:47:54 31° NNW 23:50:52 10° NE visible
30 May - 01:23:26 10° NW 01:25:05 13° N 01:26:43 10° NNE visible
30 May - 03:00:32 10° NNW 03:02:30 15° NNE 03:04:30 10° NE visible
30 May - 04:36:20 10° NW 04:39:31 49° NNE 04:42:42 10° ESE visible
30 May - 06:13:21 10° W 06:15:42 18° SW 06:17:59 10° S daylight
30 May - 21:16:13 10° S 21:18:16 16° SE 21:20:24 10° E visible
30 May - 22:51:14 10° WSW 22:54:24 54° NNW 22:57:37 10° NE visible
31 May - 00:29:19 10° NW 00:31:23 15° NNW 00:33:25 10° NNE visible
31 May - 02:07:12 10° NNW 02:08:48 13° N 02:10:24 10° NE visible
31 May - 03:43:05 10° NW 03:46:00 29° NNE 03:48:55 10° E visible
31 May - 05:19:25 10° WNW 05:22:27 35° SW 05:25:27 10° SSE daylight
31 May - 21:57:45 10° SW 22:00:58 77° SE 22:04:13 10° NE visible
31 May - 23:35:11 10° WNW 23:37:42 20° NNW 23:40:11 10° NNE visible
